Date String (YYYY-MM-DD hh:mm:ss) UTC,Instrument flags,absolute air pressure of the measurement (hPa),sample flow rate (lpm),inlet stack bypass flow (lpm),air temperature of the measurement (°C),ambient temperature measured by the external sensor (°C),aerosol sample conditioner tube jacket temperature (°C),OPC LED temperature (°C),internal box temperature (°C),relative humidity of the measurement (%),span deviation,mass concentration of particles derived from Lorenz-Mie calculation of OPC scattering (μg/m³),mass concentration of particles derived from Lorenz-Mie calculation of OPC scattering (μg/m³),mass concentration of particles derived from Lorenz-Mie calculation of OPC scattering (μg/m³)
DateTimeUTC,F1_M11,P_M11,Q1_M11,Q2_M11,T1_M11,T2_M11,T3_M11,T4_M11,T5_M11,U1_M11,ZSPAN_M11,X0_M11,X2_M11,X1_M11
2024-05-19 11:00:00,SystemResetWarning,0825.6,5.00,000.00,025.4,024.8,000.0,033.4,027.2,022.3,0000.0,0007.38,0003.01,0002.02
2024-05-19 11:01:00,SystemResetWarning,0825.6,4.99,000.00,025.4,024.8,000.0,033.4,027.2,022.2,0000.0,0007.41,0003.01,0002.03
2024-05-19 11:02:00,SystemResetWarning,0825.6,5.00,000.00,025.5,024.8,000.0,033.5,027.2,022.1,0000.0,0007.53,0003.06,0002.02
2024-05-19 11:03:00,SystemResetWarning,0825.6,5.00,000.00,025.5,024.9,000.0,033.5,027.3,022.2,0000.0,0007.12,0003.04,0002.03
2024-05-19 11:04:00,SystemResetWarning,0825.6,5.00,000.00,025.5,024.9,000.0,033.5,027.3,022.2,0000.0,0006.75,0003.01,0002.03
2024-05-19 11:05:00,SystemResetWarning,0825.6,5.00,000.00,025.5,024.9,000.0,033.5,027.3,022.1,0000.0,0006.59,0002.99,0002.03
2024-05-19 11:06:00,SystemResetWarning,0825.6,5.00,000.00,025.5,024.9,000.0,033.6,027.3,022.2,0000.0,0005.59,0002.99,0002.05
2024-05-19 11:07:00,SystemResetWarning,0825.6,5.00,000.00,025.5,024.9,000.0,033.6,027.3,022.4,0000.0,0005.47,0003.02,0002.05
2024-05-19 11:08:00,SystemResetWarning,0825.5,5.00,000.00,025.6,025.0,000.0,033.6,027.4,022.2,0000.0,0005.75,0003.02,0002.06
2024-05-19 11:09:00,SystemResetWarning,0825.6,5.00,000.00,025.6,025.0,000.0,033.6,027.4,022.2,0000.0,0005.87,0002.97,0002.04
2024-05-19 11:10:00,SystemResetWarning,0825.5,5.00,000.00,025.6,025.0,000.0,033.6,027.4,022.1,0000.0,0006.42,0002.90,0002.02
2024-05-19 11:11:00,SystemResetWarning,0825.5,5.00,000.00,025.6,025.0,000.0,033.7,027.4,022.0,0000.0,0006.41,0002.87,0002.01
2024-05-19 11:12:00,SystemResetWarning,0825.5,5.00,000.00,025.6,025.0,000.0,033.7,027.4,022.1,0000.0,0007.09,0002.90,0002.00
2024-05-19 11:13:00,SystemResetWarning,0825.5,5.01,000.00,025.7,025.0,000.0,033.7,027.4,022.1,0000.0,0007.43,0002.86,0002.00
2024-05-19 11:14:00,SystemResetWarning,0825.5,5.00,000.00,025.7,025.0,000.0,033.7,027.4,021.9,0000.0,0007.51,0002.88,0002.01
2024-05-19 11:15:00,SystemResetWarning,0825.5,5.00,000.00,025.7,025.0,000.0,033.7,027.5,021.8,0000.0,0007.54,0002.90,0002.02
2024-05-19 11:16:00,SystemResetWarning,0825.5,5.00,000.00,025.7,025.1,000.0,033.7,027.5,021.7,0000.0,0007.49,0002.90,0002.04
2024-05-19 11:17:00,SystemResetWarning,0825.4,5.00,000.00,025.7,025.1,000.0,033.7,027.5,021.6,0000.0,0007.54,0002.89,0002.03
2024-05-19 11:18:00,SystemResetWarning,0825.4,5.00,000.00,025.7,024.8,000.0,033.8,027.3,021.6,0000.0,0007.38,0002.87,0002.03
2024-05-19 11:19:00,SystemResetWarning,0825.3,4.99,000.00,025.4,022.6,000.0,033.8,026.1,022.1,0000.0,0007.17,0002.86,0002.03
2024-05-19 11:20:00,SystemResetWarning,0825.3,5.01,000.00,025.0,021.7,000.0,033.8,025.5,022.5,0000.0,0006.96,0002.85,0002.03
2024-05-19 11:21:00,SystemResetWarning,0825.3,5.00,000.00,024.7,021.9,000.0,033.7,025.5,022.8,0000.0,0006.26,0002.87,0002.04
2024-05-19 11:22:00,SystemResetWarning,0825.3,4.99,000.00,024.7,022.3,000.0,033.5,025.8,022.9,0000.0,0006.28,0002.87,0002.04
2024-05-19 11:23:00,SystemResetWarning,0825.3,4.99,000.00,024.7,022.6,000.0,033.4,026.0,022.9,0000.0,0005.64,0002.83,0002.04
2024-05-19 11:24:00,SystemResetWarning,0825.4,5.01,000.00,024.7,022.9,000.0,033.3,026.2,022.9,0000.0,0004.94,0002.83,0002.05
2024-05-19 11:25:00,SystemResetWarning,0825.4,5.01,000.00,024.7,023.2,000.0,033.3,026.3,022.9,0000.0,0004.81,0002.79,0002.03
2024-05-19 11:26:00,SystemResetWarning,0825.4,5.00,000.00,024.8,023.4,000.0,033.2,026.4,022.9,0000.0,0005.55,0002.86,0002.03
2024-05-19 11:27:00,SystemResetWarning,0825.4,5.00,000.00,024.8,023.6,000.0,033.2,026.5,022.8,0000.0,0006.60,0002.93,0002.03
2024-05-19 11:28:00,SystemResetWarning,0825.4,5.00,000.00,024.8,023.8,000.0,033.2,026.6,022.7,0000.0,0006.56,0002.94,0002.03
2024-05-19 11:29:00,SystemResetWarning,0825.3,5.00,000.00,024.9,023.9,000.0,033.2,026.6,022.7,0000.0,0006.65,0002.97,0002.04
2024-05-19 11:30:00,SystemResetWarning,0825.2,5.01,000.00,024.9,024.0,000.0,033.2,026.7,022.6,0000.0,0006.73,0002.98,0002.03
2024-05-19 11:31:00,SystemResetWarning,0825.2,4.99,000.00,024.9,024.1,000.0,033.2,026.7,022.6,0000.0,0006.79,0002.99,0002.04
2024-05-19 11:32:00,SystemResetWarning,0825.3,4.99,000.00,025.0,024.2,000.0,033.2,026.7,022.5,0000.0,0007.00,0002.98,0002.03
2024-05-19 11:33:00,SystemResetWarning,0825.3,5.00,000.00,025.0,024.3,000.0,033.2,026.8,022.5,0000.0,0007.25,0002.95,0002.03
2024-05-19 11:34:00,SystemResetWarning,0825.3,5.00,000.00,025.0,024.3,000.0,033.2,026.8,022.5,0000.0,0008.70,0002.97,0002.03
2024-05-19 11:35:00,SystemResetWarning,0825.3,5.00,000.00,025.1,024.4,000.0,033.2,026.9,022.4,0000.0,0008.68,0002.98,0002.05
2024-05-19 11:36:00,SystemResetWarning,0825.3,5.01,000.00,025.1,024.4,000.0,033.2,026.9,022.8,0000.0,0008.68,0003.03,0002.07
2024-05-19 11:37:00,SystemResetWarning,0825.3,5.00,000.00,025.1,024.5,000.0,033.2,026.9,023.1,0000.0,0008.48,0002.97,0002.06
2024-05-19 11:38:00,SystemResetWarning,0825.3,5.00,000.00,025.1,024.5,000.0,033.2,026.9,022.7,0000.0,0007.83,0002.92,0002.05
2024-05-19 11:39:00,SystemResetWarning,0825.3,5.00,000.00,025.2,024.6,000.0,033.2,027.0,022.5,0000.0,0007.84,0002.96,0002.08
2024-05-19 11:40:00,SystemResetWarning,0825.3,5.00,000.00,025.2,024.6,000.0,033.3,027.0,022.5,0000.0,0007.85,0003.00,0002.09
2024-05-19 11:41:00,SystemResetWarning,0825.3,5.00,000.00,025.2,024.6,000.0,033.3,027.0,022.5,0000.0,0007.92,0003.06,0002.10
2024-05-19 11:42:00,SystemResetWarning,0825.3,5.00,000.00,025.3,024.6,000.0,033.3,027.1,022.6,0000.0,0008.02,0003.08,0002.09
2024-05-19 11:43:00,SystemResetWarning,0825.3,5.00,000.00,025.3,024.7,000.0,033.3,027.1,022.5,0000.0,0007.89,0003.06,0002.11
2024-05-19 11:44:00,SystemResetWarning,0825.4,4.99,000.00,025.3,024.7,000.0,033.3,027.1,022.4,0000.0,0007.75,0003.12,0002.12
2024-05-19 11:45:00,SystemResetWarning,0825.4,5.00,000.00,025.3,024.7,000.0,033.3,027.1,022.3,0000.0,0005.71,0003.14,0002.13
2024-05-19 11:46:00,SystemResetWarning,0825.4,5.00,000.00,025.3,024.7,000.0,033.4,027.1,022.4,0000.0,0005.77,0003.15,0002.14
2024-05-19 11:47:00,SystemResetWarning,0825.4,4.99,000.00,025.4,024.8,000.0,033.4,027.2,022.3,0000.0,0005.65,0003.13,0002.13
2024-05-19 11:48:00,SystemResetWarning,0825.4,5.00,000.00,025.4,024.8,000.0,033.4,027.2,022.3,0000.0,0005.72,0003.13,0002.14
2024-05-19 11:49:00,SystemResetWarning,0825.4,5.00,000.00,025.4,024.8,000.0,033.4,027.2,022.2,0000.0,0006.37,0003.13,0002.15
2024-05-19 11:50:00,SystemResetWarning,0825.4,5.01,000.00,025.4,024.8,000.0,033.5,027.2,022.2,0000.0,0006.34,0003.10,0002.13
2024-05-19 11:51:00,SystemResetWarning,0825.3,4.99,000.00,025.4,024.8,000.0,033.5,027.2,022.5,0000.0,0006.63,0003.13,0002.15
2024-05-19 11:52:00,SystemResetWarning,0825.4,5.00,000.00,025.5,024.8,000.0,033.5,027.2,022.6,0000.0,0008.01,0003.24,0002.20
2024-05-19 11:53:00,SystemResetWarning,0825.3,5.00,000.00,025.5,024.9,000.0,033.5,027.3,022.6,0000.0,0009.39,0003.34,0002.25
2024-05-19 11:54:00,SystemResetWarning,0825.3,5.00,000.00,025.5,024.9,000.0,033.5,027.3,022.6,0000.0,0010.80,0003.48,0002.32
2024-05-19 11:55:00,SystemResetWarning,0825.3,5.00,000.00,025.5,024.9,000.0,033.6,027.3,022.7,0000.0,0011.62,0003.57,0002.39
2024-05-19 11:56:00,SystemResetWarning,0825.3,5.00,000.00,025.5,024.9,000.0,033.6,027.3,022.7,0000.0,0012.40,0003.68,0002.45
2024-05-19 11:57:00,SystemResetWarning,0825.3,5.00,000.00,025.5,024.9,000.0,033.6,027.3,022.7,0000.0,0013.47,0003.80,0002.50
2024-05-19 11:58:00,SystemResetWarning,0825.3,5.00,000.00,025.6,024.9,000.0,033.6,027.3,022.7,0000.0,0014.51,0003.93,0002.58
2024-05-19 11:59:00,SystemResetWarning,0825.3,5.00,000.00,025.6,024.9,000.0,033.6,027.4,022.7,0000.0,0015.99,0004.08,0002.66
